Flight Track Log - Related Links

Times and Time Zones

All times are in EDT time to prevent confusion due to time zone crossing. See the EJM916 flight status page for this flight to view local times or setup timezone preferences in your user account.

Time Position Orientation Groundspeed Altitude Reporting Facility
EDT Latitude Longitude Course Direction KTS MPH feet Rate Location/Type
Sun 10:26:41 AM 41.7833 -87.8000 164° South 182 209 2,900  Level Chicago TRACON
Sun 10:28:11 AM 41.6908 -87.7653 164° South 275 316 6,800 3,118 Climbing Chicago Center
Sun 10:29:13 AM 41.6158 -87.7136 153° Southeast 300 345 10,800 2,927 Climbing Chicago Center
Sun 10:30:14 AM 41.5286 -87.6494 151° Southeast 362 417 12,800 2,244 Climbing Chicago Center
Sun 10:31:16 AM 41.4303 -87.5781 151° Southeast 393 452 15,400 2,878 Climbing Chicago Center
Sun 10:32:17 AM 41.3169 -87.5531 171° South 406 467 18,700 3,073 Climbing Chicago Center
Sun 10:33:19 AM 41.1808 -87.5294 173° South 408 470 21,700 2,439 Climbing Chicago Center
Sun 10:34:20 AM 41.0633 -87.4947 167° South 426 490 23,700 2,000 Climbing Chicago Center
Sun 10:35:22 AM 40.9431 -87.4633 169° South 439 505 25,800 1,951 Climbing Chicago Center
Sun 10:36:23 AM 40.8211 -87.4292 168° South 446 513 27,700 1,967 Climbing Chicago Center
Sun 10:37:24 AM 40.7081 -87.3517 153° Southeast 454 522 29,800 1,756 Climbing Chicago Center
Sun 10:38:26 AM 40.5942 -87.2725 152° Southeast 462 532 31,300 1,366 Climbing Chicago Center
Sun 10:39:27 AM 40.4775 -87.1933 153° Southeast 470 541 32,600 1,171 Climbing Chicago Center
Sun 10:40:29 AM 40.3486 -87.1042 152° Southeast 482 555 33,700 1,024 Climbing Chicago Center
Sun 10:41:30 AM 40.2269 -87.0225 153° Southeast 491 565 34,700 976 Climbing Chicago Center
Sun 10:42:32 AM 40.1022 -86.9403 153° Southeast 499 574 35,700 958 Climbing Chicago Center
Sun 10:43:29 AM 39.9817 -86.8464 149° Southeast 506 582 36,600 1,068 Climbing Indianapolis Center
Sun 10:44:30 AM 39.8747 -86.7308 140° Southeast 503 579 37,800 1,122 Climbing Indianapolis Center
Sun 10:45:32 AM 39.7697 -86.6183 141° Southeast 497 572 38,900 585 Climbing Indianapolis Center
Sun 10:46:33 AM 39.6439 -86.4836 140° Southeast 498 573 39,000 49 Climbing Indianapolis Center
Sun 10:47:34 AM 39.5392 -86.3728 141° Southeast 499 574 39,000  Level Indianapolis Center
Sun 10:48:35 AM 39.4372 -86.2614 140° Southeast 491 565 39,000  Level Indianapolis Center
Sun 10:49:36 AM 39.3331 -86.1494 140° Southeast 491 565 39,000  Level Indianapolis Center
Sun 10:50:37 AM 39.2286 -86.0383 140° Southeast 491 565 39,000  Level Indianapolis Center
Sun 10:51:38 AM 39.1233 -85.9289 141° Southeast 490 564 39,000  Level Indianapolis Center
Sun 10:52:39 AM 39.0183 -85.8181 141° Southeast 490 564 39,000  Level Indianapolis Center
Sun 10:53:40 AM 38.9114 -85.7083 141° Southeast 492 566 39,000  Level Indianapolis Center
Sun 10:54:41 AM 38.7844 -85.5753 141° Southeast 493 567 39,000  Level Indianapolis Center
Sun 10:55:42 AM 38.6786 -85.4647 141° Southeast 495 570 39,000  Level Indianapolis Center
Sun 10:56:43 AM 38.5797 -85.3639 141° Southeast 485 558 39,000  Level Indianapolis Center
Sun 10:57:44 AM 38.4725 -85.2531 141° Southeast 491 565 39,000  Level Indianapolis Center
Sun 10:58:46 AM 38.3542 -85.1303 141° Southeast 494 568 39,000  Level Indianapolis Center
Sun 10:59:47 AM 38.2453 -85.0219 142° Southeast 497 572 39,000  Level Indianapolis Center
Sun 11:00:48 AM 38.1364 -84.9114 141° Southeast 501 577 39,000  Level Indianapolis Center
Sun 11:01:49 AM 38.0289 -84.8022 141° Southeast 495 570 39,000  Level Indianapolis Center
Sun 11:02:50 AM 37.9228 -84.6950 141° Southeast 489 563 39,000  Level Indianapolis Center
Sun 11:03:51 AM 37.8175 -84.5892 142° Southeast 486 559 39,000  Level Indianapolis Center
Sun 11:04:53 AM 37.7114 -84.4847 142° Southeast 483 556 39,000  Level Indianapolis Center
Sun 11:05:54 AM 37.5897 -84.3617 141° Southeast 480 552 39,000  Level Indianapolis Center
Sun 11:06:55 AM 37.4844 -84.2569 142° Southeast 483 556 39,000  Level Indianapolis Center
Sun 11:07:56 AM 37.3814 -84.1556 142° Southeast 474 545 39,000  Level Indianapolis Center
Sun 11:08:57 AM 37.2772 -84.0539 142° Southeast 473 544 39,000  Level Indianapolis Center
Sun 11:09:58 AM 37.1731 -83.9508 142° Southeast 476 548 39,000  Level Indianapolis Center
Sun 11:10:59 AM 37.0706 -83.8511 142° Southeast 470 541 39,000  Level Indianapolis Center
Sun 11:12:00 AM 36.9658 -83.7492 142° Southeast 474 545 39,000  Level Indianapolis Center
Sun 11:13:02 AM 36.8625 -83.6489 142° Southeast 473 544 39,000  Level Indianapolis Center
Sun 11:14:03 AM 36.7589 -83.5489 142° Southeast 473 544 39,000  Level Indianapolis Center
Sun 11:15:04 AM 36.6372 -83.4328 143° Southeast 473 544 39,000  Level Indianapolis Center
Sun 11:16:05 AM 36.5331 -83.3328 142° Southeast 474 545 39,000  Level Indianapolis Center
Sun 11:17:06 AM 36.4283 -83.2331 143° Southeast 476 548 39,000  Level Indianapolis Center
Sun 11:18:07 AM 36.3244 -83.1331 142° Southeast 474 545 39,000  Level Indianapolis Center
Sun 11:19:08 AM 36.2197 -83.0331 142° Southeast 475 547 39,000  Level Indianapolis Center
Sun 11:20:21 AM 36.0969 -82.9183 143° Southeast 479 551 39,000  Level Atlanta Center
Sun 11:21:21 AM 35.9917 -82.8197 143° Southeast 479 551 39,000  Level Atlanta Center
Sun 11:22:21 AM 35.8864 -82.7189 142° Southeast 479 551 39,000  Level Atlanta Center
Sun 11:23:21 AM 35.7831 -82.6206 142° Southeast 479 551 39,000 -200 Level Atlanta Center
Sun 11:24:21 AM 35.6797 -82.5278 144° Southeast 474 545 38,600 -750 Descending Atlanta Center
Sun 11:25:21 AM 35.5764 -82.4328 143° Southeast 469 540 37,500 -800 Descending Atlanta Center
Sun 11:26:21 AM 35.4622 -82.3278 143° Southeast 469 540 37,000 -250 Descending Atlanta Center
Sun 11:27:21 AM 35.3544 -82.2283 143° Southeast 469 540 37,000 -200 Level Atlanta Center
Sun 11:28:21 AM 35.2508 -82.1339 143° Southeast 476 548 36,600 -850 Descending Atlanta Center
Sun 11:29:21 AM 35.1469 -82.0397 143° Southeast 471 542 35,300 -1,550 Descending Atlanta Center
Sun 11:30:21 AM 35.0411 -81.9433 143° Southeast 471 542 33,500 -1,400 Descending Atlanta Center
Sun 11:31:21 AM 34.9289 -81.8575 148° Southeast 476 548 32,500 -1,000 Descending Atlanta Center
Sun 11:32:21 AM 34.8106 -81.7744 150° Southeast 476 548 31,500 -1,026 Descending Atlanta Center
Sun 11:33:53 AM 34.6272 -81.6461 150° Southeast 499 574 29,900 -1,066 Descending Jacksonville Center
Sun 11:34:53 AM 34.5222 -81.5644 147° Southeast 499 574 28,800 -1,150 Descending Jacksonville Center
Sun 11:35:53 AM 34.3981 -81.4783 150° Southeast 499 574 27,600 -1,200 Descending Jacksonville Center
Sun 11:36:53 AM 34.2783 -81.3947 150° Southeast 499 574 26,400 -1,100 Descending Jacksonville Center
Sun 11:37:53 AM 34.1647 -81.3164 150° Southeast 493 567 25,400 -1,000 Descending Jacksonville Center
Sun 11:38:53 AM 34.0467 -81.2308 149° Southeast 493 567 24,400 -1,000 Descending Jacksonville Center
Sun 11:39:53 AM 33.9331 -81.1531 150° Southeast 488 562 23,400 -1,000 Descending Jacksonville Center
Sun 11:40:53 AM 33.8192 -81.0753 150° Southeast 483 556 22,400 -1,000 Descending Jacksonville Center
Sun 11:41:53 AM 33.7094 -81.0000 150° Southeast 477 549 21,400 -1,000 Descending Jacksonville Center
Sun 11:42:53 AM 33.6000 -80.9275 151° Southeast 463 533 20,400 -1,400 Descending Jacksonville Center
Sun 11:43:53 AM 33.4944 -80.8528 149° Southeast 452 520 18,600 -2,350 Descending Jacksonville Center
Sun 11:44:53 AM 33.3931 -80.7853 151° Southeast 434 499 15,700 -2,950 Descending Jacksonville Center
Sun 11:45:53 AM 33.2981 -80.7206 150° Southeast 416 479 12,700 -2,350 Descending Jacksonville Center
Sun 11:46:53 AM 33.2194 -80.6431 140° Southeast 373 429 11,000 -1,400 Descending Jacksonville Center
Sun 11:47:53 AM 33.1781 -80.5422 116° Southeast 347 399 9,900 -1,350 Descending Jacksonville Center
Sun 11:48:53 AM 33.1389 -80.4542 118° Southeast 322 371 8,300 -1,700 Descending Jacksonville Center
Sun 11:49:53 AM 33.1017 -80.3733 119° Southeast 299 344 6,500 -1,950 Descending Jacksonville Center
Sun 11:50:53 AM 33.0644 -80.2900 118° Southeast 265 305 4,400 -2,000 Descending Jacksonville Center
Sun 11:51:53 AM 33.0339 -80.2239 119° Southeast 245 282 2,500 -1,450 Descending Jacksonville Center
Sun 11:52:53 AM 33.0075 -80.1628 117° Southeast 223 257 1,500 -500 Descending Jacksonville Center
Sun 11:53:53 AM 32.9836 -80.1142 120° Southeast 194 223 1,500 -300 Level Jacksonville Center
Sun 11:54:53 AM 32.9536 -80.0803 137° Southeast 165 190 900 -600 Descending Jacksonville Center
Sun 11:56:00 AM 32.8986 -80.0405 79° East  Level Estimated
Sun 12:03:00 PM 32.8986 -80.0405 79° East  Level Estimated
Sun 12:04:00 PM 32.8986 -80.0405 79° East  Level Estimated
Sun 12:05:00 PM 32.8986 -80.0405 79° East  Level Estimated

Login

Don't have an account? Register now (free) for customized features, flight alerts, and more!